Total_Precipitation_Accumulation
1.07 1.33 1.27 1.04 1.01 1.06 1.10 1.23 1.47 1.43 1.35 1.43 1.58 1.69 1.62 1.58 1.56 1.42 1.26 1.14 0.94 0.81 0.78 0.76 0.76 0.79 0.83 0.86 0.89 1.01 1.11 1.15 1.22 1.38 1.59 1.87 2.11 2.33
1.18 1.23 1.27 1.20 1.17 1.17 1.22 1.30 1.49 1.53 1.47 1.47 1.69 1.77 1.60 1.42 1.48 1.44 1.29 1.21 1.01 0.87 0.78 0.77 0.79 0.80 0.78 0.77 0.74 0.74 0.77 0.78 0.81 0.87 0.95 1.08 1.27 1.56
1.36 1.31 1.31 1.39 1.42 1.32 1.33 1.37 1.48 1.63 1.63 1.59 1.73 1.77 1.64 1.41 1.36 1.35 1.32 1.30 1.14 1.06 0.90 0.83 0.79 0.77 0.74 0.77 0.79 0.76 0.70 0.65 0.63 0.67 0.71 0.76 0.80 0.85
1.40 1.54 1.55 1.51 1.47 1.40 1.43 1.47 1.58 1.79 1.82 1.74 1.73 1.77 1.69 1.55 1.46 1.33 1.19 1.16 1.14 1.19 1.02 0.88 0.81 0.78 0.75 0.72 0.70 0.68 0.65 0.62 0.57 0.53 0.54 0.57 0.61 0.66
1.20 1.46 1.68 1.88 1.78 1.61 1.53 1.50 1.57 1.68 1.84 1.77 1.73 1.86 1.84 1.70 1.56 1.36 1.20 1.15 1.00 1.03 1.02 0.93 0.83 0.76 0.71 0.67 0.65 0.64 0.61 0.59 0.59 0.59 0.57 0.57 0.57 0.58
1.08 1.20 1.33 1.54 1.72 1.80 1.66 1.52 1.53 1.65 1.82 1.86 1.94 2.17 2.20 2.02 1.73 1.52 1.40 1.27 1.12 0.92 0.93 0.92 0.86 0.78 0.74 0.71 0.67 0.64 0.64 0.63 0.64 0.64 0.63 0.62 0.59 0.57
1.16 1.15 1.12 1.21 1.33 1.47 1.51 1.63 1.65 1.66 1.78 1.88 2.08 2.49 2.50 2.23 1.82 1.60 1.53 1.45 1.27 1.08 0.98 0.87 0.81 0.75 0.75 0.77 0.75 0.70 0.64 0.61 0.59 0.60 0.63 0.64 0.63 0.61
1.36 1.29 1.18 1.09 1.10 1.17 1.24 1.35 1.51 1.58 1.63 1.75 1.95 2.26 2.40 2.27 1.99 1.76 1.56 1.43 1.32 1.22 1.12 1.06 0.92 0.86 0.78 0.70 0.76 0.74 0.71 0.66 0.61 0.58 0.57 0.59 0.62 0.61
1.54 1.54 1.26 1.05 1.10 1.07 1.16 1.18 1.21 1.32 1.43 1.54 1.72 1.94 2.24 2.34 2.18 1.82 1.67 1.54 1.33 1.21 1.16 1.12 1.01 0.90 0.80 0.75 0.79 0.67 0.64 0.62 0.58 0.55 0.52 0.50 0.51 0.53
1.29 1.29 1.25 1.11 1.02 1.00 1.01 0.99 0.97 0.99 1.05 1.12 1.28 1.54 1.83 2.18 2.35 2.13 1.94 1.75 1.51 1.30 1.11 1.10 1.07 0.95 0.83 0.74 0.79 0.69 0.58 0.55 0.53 0.48 0.46 0.46 0.46 0.46
1.04 1.07 1.11 1.01 0.96 0.83 0.81 0.85 0.84 0.82 0.80 0.84 0.92 1.10 1.36 1.68 2.02 2.15 1.87 1.54 1.40 1.21 1.05 0.96 0.92 0.94 0.90 0.75 0.72 0.74 0.61 0.54 0.51 0.50 0.47 0.44 0.42 0.41
1.15 1.18 1.14 0.99 0.88 0.70 0.69 0.75 0.74 0.70 0.72 0.72 0.72 0.78 0.91 1.17 1.52 1.67 1.71 1.45 1.22 1.10 0.84 0.77 0.74 0.76 0.81 0.70 0.56 0.54 0.55 0.57 0.55 0.50 0.48 0.47 0.46 0.35
1.20 1.28 1.21 1.05 0.79 0.63 0.57 0.59 0.56 0.58 0.63 0.66 0.66 0.70 0.84 1.01 1.17 1.39 1.53 1.45 1.21 0.94 0.76 0.73 0.66 0.67 0.68 0.65 0.60 0.54 0.50 0.50 0.52 0.54 0.55 0.55 0.55 0.47
1.06 1.19 1.20 1.02 0.79 0.63 0.52 0.47 0.44 0.42 0.47 0.54 0.57 0.58 0.64 0.77 0.95 1.21 1.41 1.42 1.28 1.05 0.89 0.86 0.80 0.71 0.66 0.60 0.56 0.55 0.54 0.53 0.53 0.52 0.53 0.63 0.60 0.60
0.83 1.09 1.18 1.05 0.90 0.74 0.65 0.59 0.49 0.42 0.44 0.47 0.44 0.44 0.48 0.60 0.82 1.15 1.50 1.63 1.53 1.29 1.10 0.96 0.88 0.85 0.85 0.72 0.57 0.51 0.53 0.54 0.50 0.51 0.53 0.56 0.55 0.55
0.78 0.94 1.07 1.09 0.98 0.90 0.80 0.67 0.56 0.51 0.49 0.49 0.48 0.51 0.59 0.70 0.83 0.98 1.30 1.56 1.59 1.40 1.19 1.07 0.98 0.97 0.93 0.79 0.65 0.50 0.44 0.46 0.46 0.48 0.52 0.54 0.57 0.57
0.83 0.89 1.02 1.11 1.12 1.08 1.05 0.94 0.82 0.74 0.66 0.61 0.66 0.67 0.72 0.78 0.80 0.89 1.10 1.29 1.29 1.16 1.06 1.05 1.05 1.02 0.95 0.92 0.79 0.55 0.44 0.40 0.40 0.48 0.57 0.58 0.57 0.62
0.58 0.72 0.90 1.05 1.17 1.22 1.24 1.18 1.05 0.95 0.85 0.82 0.83 0.81 0.78 0.82 0.82 0.84 0.98 1.14 1.15 1.09 1.03 0.97 1.05 1.15 1.09 0.93 0.77 0.65 0.52 0.44 0.44 0.53 0.60 0.61 0.57 0.57
0.40 0.57 0.73 0.87 1.04 1.17 1.21 1.16 1.08 1.05 1.06 1.04 1.02 0.98 0.91 0.90 0.93 0.92 0.93 1.05 1.11 1.07 1.08 1.05 1.05 1.07 1.04 0.80 0.57 0.54 0.59 0.56 0.60 0.62 0.65 0.63 0.55 0.53
0.36 0.52 0.67 0.80 0.95 1.11 1.15 1.14 1.15 1.17 1.17 1.13 1.14 1.14 1.10 1.04 1.03 1.00 0.96 0.97 1.07 1.14 1.14 1.12 1.05 0.96 0.88 0.79 0.69 0.58 0.56 0.68 0.74 0.72 0.70 0.72 0.65 0.63
0.45 0.51 0.58 0.69 0.86 1.03 1.16 1.20 1.22 1.21 1.19 1.21 1.21 1.21 1.23 1.18 1.07 1.06 1.10 1.09 1.07 1.12 1.07 0.94 0.91 1.02 1.10 1.12 0.97 0.69 0.56 0.59 0.71 0.76 0.81 0.88 0.80 0.74
0.61 0.64 0.66 0.73 0.90 1.07 1.20 1.29 1.34 1.31 1.26 1.26 1.27 1.27 1.26 1.24 1.14 1.13 1.21 1.19 1.07 1.00 0.99 1.02 1.17 1.32 1.30 1.18 0.92 0.73 0.67 0.68 0.71 0.75 0.79 0.84 0.83 0.74
0.73 0.70 0.65 0.69 0.85 1.03 1.13 1.24 1.34 1.33 1.26 1.23 1.29 1.33 1.25 1.20 1.15 1.16 1.21 1.25 1.20 1.13 1.16 1.19 1.25 1.28 1.24 1.20 1.11 0.93 0.80 0.78 0.79 0.74 0.63 0.59 0.57 0.57